Time,TemperatureF,DewpointF,PressureIn,WindDirection,WindDirectionDegrees,WindSpeedMPH,WindSpeedGustMPH,Humidity,HourlyPrecipIn,Conditions,Clouds,dailyrainin,SolarRadiationWatts/m^2,SoftwareType,DateUTC
2013-04-11 00:22:00,54.0,44.0,29.96,NE,42,5.0,13.0,68,0.00,,,0.00,0.000000,,2013-04-11 07:22:00,
2013-04-11 00:32:00,54.0,44.0,29.96,NE,42,5.0,13.0,68,0.00,,,0.00,0.000000,,2013-04-11 07:32:00,
2013-04-11 00:42:00,54.0,44.0,29.96,NE,42,5.0,13.0,68,0.00,,,0.00,0.000000,,2013-04-11 07:42:00,
2013-04-11 00:52:00,54.0,44.0,29.96,NE,42,5.0,13.0,68,0.00,,,0.00,0.000000,,2013-04-11 07:52:00,
2013-04-11 01:22:00,52.0,36.0,29.95,NE,35,5.0,8.0,54,0.00,,,0.00,0.000000,,2013-04-11 08:22:00,
2013-04-11 01:32:00,52.0,36.0,29.95,NE,35,5.0,8.0,54,0.00,,,0.00,0.000000,,2013-04-11 08:32:00,
2013-04-11 01:42:00,52.0,36.0,29.95,NE,35,5.0,8.0,54,0.00,,,0.00,0.000000,,2013-04-11 08:42:00,
2013-04-11 01:51:00,52.0,36.0,29.95,NE,35,5.0,8.0,54,0.00,,,0.00,0.000000,,2013-04-11 08:51:00,
2013-04-11 02:22:00,53.0,45.0,29.95,NE,51,2.0,8.0,74,0.00,,,0.00,0.000000,,2013-04-11 09:22:00,
2013-04-11 02:33:00,53.0,45.0,29.95,NE,51,2.0,8.0,74,0.00,,,0.00,0.000000,,2013-04-11 09:33:00,
2013-04-11 02:42:00,53.0,45.0,29.95,NE,51,2.0,8.0,74,0.00,,,0.00,0.000000,,2013-04-11 09:42:00,
2013-04-11 02:52:00,53.0,45.0,29.95,NE,51,2.0,8.0,74,0.00,,,0.00,0.000000,,2013-04-11 09:52:00,
2013-04-11 03:23:00,51.0,38.0,29.94,NNE,28,6.0,8.0,60,0.00,,,0.00,0.000000,,2013-04-11 10:23:00,
2013-04-11 03:32:00,51.0,38.0,29.94,NNE,28,6.0,8.0,60,0.00,,,0.00,0.000000,,2013-04-11 10:32:00,
2013-04-11 03:42:00,51.0,38.0,29.94,NNE,28,6.0,8.0,60,0.00,,,0.00,0.000000,,2013-04-11 10:42:00,
2013-04-11 03:52:00,51.0,38.0,29.94,NNE,28,6.0,8.0,60,0.00,,,0.00,0.000000,,2013-04-11 10:52:00,
2013-04-11 04:22:00,51.0,35.0,29.91,NNE,22,6.0,10.0,54,0.00,,,-99.99,0.000000,,2013-04-11 11:22:00,
2013-04-11 04:32:00,51.0,35.0,29.91,NNE,22,6.0,10.0,54,0.00,,,-99.99,0.000000,,2013-04-11 11:32:00,
2013-04-11 04:42:00,51.0,35.0,29.91,NNE,22,6.0,10.0,54,0.00,,,-99.99,0.000000,,2013-04-11 11:42:00,
2013-04-11 04:52:00,51.0,35.0,29.91,NNE,22,6.0,10.0,54,0.00,,,-99.99,0.000000,,2013-04-11 11:52:00,
2013-04-11 05:22:00,51.0,36.0,29.92,North,8,7.0,11.0,57,0.00,,,-99.99,0.000000,,2013-04-11 12:22:00,
2013-04-11 05:32:00,51.0,36.0,29.92,North,8,7.0,11.0,57,0.00,,,-99.99,0.000000,,2013-04-11 12:32:00,
2013-04-11 05:42:00,51.0,36.0,29.92,North,8,7.0,11.0,57,0.00,,,-99.99,0.000000,,2013-04-11 12:42:00,
2013-04-11 05:52:00,51.0,36.0,29.92,North,8,7.0,11.0,57,0.00,,,-99.99,0.000000,,2013-04-11 12:52:00,
2013-04-11 06:22:00,53.0,34.0,29.91,North,5,5.0,14.0,48,0.00,,,0.00,0.000000,,2013-04-11 13:22:00,
2013-04-11 06:32:00,53.0,34.0,29.91,North,5,5.0,14.0,48,0.00,,,0.00,0.000000,,2013-04-11 13:32:00,
2013-04-11 06:43:00,53.0,34.0,29.91,North,5,5.0,14.0,48,0.00,,,0.00,0.000000,,2013-04-11 13:43:00,
2013-04-11 06:52:00,53.0,34.0,29.91,North,5,5.0,14.0,48,0.00,,,0.00,0.000000,,2013-04-11 13:52:00,
2013-04-11 07:22:00,51.0,31.0,29.91,NNE,16,7.0,12.0,47,0.00,,,-99.99,3.000000,,2013-04-11 14:22:00,
2013-04-11 07:32:00,51.0,31.0,29.91,NNE,16,7.0,12.0,47,0.00,,,-99.99,3.000000,,2013-04-11 14:32:00,
2013-04-11 10:23:00,68.0,48.0,29.91,WSW,239,6.0,10.0,49,-99.99,,,0.00,586.000000,,2013-04-11 17:23:00,
2013-04-11 10:32:00,68.0,48.0,29.91,WSW,239,6.0,10.0,49,-99.99,,,0.00,586.000000,,2013-04-11 17:32:00,
2013-04-11 10:42:00,68.0,48.0,29.91,WSW,239,6.0,10.0,49,-99.99,,,0.00,586.000000,,2013-04-11 17:42:00,
2013-04-11 10:52:00,68.0,48.0,29.91,WSW,239,6.0,10.0,49,-99.99,,,0.00,586.000000,,2013-04-11 17:52:00,
2013-04-11 11:22:00,69.0,46.0,29.90,SW,227,4.0,11.0,44,0.00,,,0.00,768.000000,,2013-04-11 18:22:00,
2013-04-11 11:32:00,69.0,46.0,29.90,SW,227,4.0,11.0,44,0.00,,,0.00,768.000000,,2013-04-11 18:32:00,
2013-04-11 11:42:00,69.0,46.0,29.90,SW,227,4.0,11.0,44,0.00,,,0.00,768.000000,,2013-04-11 18:42:00,
2013-04-11 11:52:00,69.0,46.0,29.90,SW,227,4.0,11.0,44,0.00,,,0.00,768.000000,,2013-04-11 18:52:00,
2013-04-11 12:22:00,69.0,47.0,29.89,SW,231,4.0,9.0,45,0.00,,,0.00,900.000000,,2013-04-11 19:22:00,
2013-04-11 12:32:00,69.0,47.0,29.89,SW,231,4.0,9.0,45,0.00,,,0.00,900.000000,,2013-04-11 19:32:00,
2013-04-11 12:42:00,69.0,47.0,29.89,SW,231,4.0,9.0,45,0.00,,,0.00,900.000000,,2013-04-11 19:42:00,
2013-04-11 12:52:00,69.0,47.0,29.89,SW,231,4.0,9.0,45,0.00,,,0.00,900.000000,,2013-04-11 19:52:00,
2013-04-11 13:22:00,68.0,50.0,29.87,WSW,247,11.0,13.0,53,0.00,,,0.00,975.000000,,2013-04-11 20:22:00,
2013-04-11 13:33:00,68.0,50.0,29.87,WSW,247,11.0,13.0,53,0.00,,,0.00,975.000000,,2013-04-11 20:33:00,
2013-04-11 13:42:00,68.0,50.0,29.87,WSW,247,11.0,13.0,53,0.00,,,0.00,975.000000,,2013-04-11 20:42:00,
2013-04-11 13:52:00,68.0,50.0,29.87,WSW,247,11.0,13.0,53,0.00,,,0.00,975.000000,,2013-04-11 20:52:00,
2013-04-11 14:22:00,66.0,48.0,29.84,WSW,249,12.0,16.0,53,0.00,,,0.00,978.000000,,2013-04-11 21:22:00,
2013-04-11 14:33:00,66.0,48.0,29.84,WSW,249,12.0,16.0,53,0.00,,,0.00,978.000000,,2013-04-11 21:33:00,
2013-04-11 14:42:00,66.0,48.0,29.84,WSW,249,12.0,16.0,53,0.00,,,0.00,978.000000,,2013-04-11 21:42:00,
2013-04-11 14:53:00,66.0,48.0,29.84,WSW,249,12.0,16.0,53,0.00,,,0.00,978.000000,,2013-04-11 21:53:00,
2013-04-11 15:23:00,64.0,50.0,29.83,West,264,13.0,23.0,60,0.00,,,0.00,921.000000,,2013-04-11 22:23:00,
2013-04-11 15:32:00,64.0,50.0,29.83,West,264,13.0,23.0,60,0.00,,,0.00,921.000000,,2013-04-11 22:32:00,
2013-04-11 15:43:00,64.0,50.0,29.83,West,264,13.0,23.0,60,0.00,,,0.00,921.000000,,2013-04-11 22:43:00,
2013-04-11 15:52:00,64.0,50.0,29.83,West,264,13.0,23.0,60,0.00,,,0.00,921.000000,,2013-04-11 22:52:00,
2013-04-11 16:22:00,63.0,49.0,29.79,West,264,15.0,24.0,61,0.00,,,0.00,799.000000,,2013-04-11 23:22:00,
2013-04-11 16:32:00,63.0,49.0,29.79,West,264,15.0,24.0,61,0.00,,,0.00,799.000000,,2013-04-11 23:32:00,
2013-04-11 16:42:00,63.0,49.0,29.79,West,264,15.0,24.0,61,0.00,,,0.00,799.000000,,2013-04-11 23:42:00,
2013-04-11 16:52:00,63.0,49.0,29.79,West,264,15.0,24.0,61,0.00,,,0.00,799.000000,,2013-04-11 23:52:00,
2013-04-11 17:22:00,63.0,50.0,29.76,West,265,14.0,23.0,62,0.00,,,0.00,617.000000,,2013-04-12 00:22:00,
2013-04-11 17:32:00,63.0,50.0,29.76,West,265,14.0,23.0,62,0.00,,,0.00,617.000000,,2013-04-12 00:32:00,
2013-04-11 17:42:00,63.0,50.0,29.76,West,265,14.0,23.0,62,0.00,,,0.00,617.000000,,2013-04-12 00:42:00,
2013-04-11 17:52:00,63.0,50.0,29.76,West,265,14.0,23.0,62,0.00,,,0.00,617.000000,,2013-04-12 00:52:00,
2013-04-11 18:22:00,61.0,51.0,29.75,West,266,15.0,22.0,70,0.00,,,0.00,393.000000,,2013-04-12 01:22:00,
2013-04-11 18:32:00,61.0,51.0,29.75,West,266,15.0,22.0,70,0.00,,,0.00,393.000000,,2013-04-12 01:32:00,
2013-04-11 18:42:00,61.0,51.0,29.75,West,266,15.0,22.0,70,0.00,,,0.00,393.000000,,2013-04-12 01:42:00,
2013-04-11 18:52:00,61.0,51.0,29.75,West,266,15.0,22.0,70,0.00,,,0.00,393.000000,,2013-04-12 01:52:00,
2013-04-11 19:22:00,58.0,51.0,29.75,West,265,12.0,23.0,78,0.00,,,0.00,127.000000,,2013-04-12 02:22:00,
2013-04-11 19:32:00,58.0,51.0,29.75,West,265,12.0,23.0,78,0.00,,,0.00,127.000000,,2013-04-12 02:32:00,
2013-04-11 19:42:00,58.0,51.0,29.75,West,265,12.0,23.0,78,0.00,,,0.00,127.000000,,2013-04-12 02:42:00,
2013-04-11 19:52:00,58.0,51.0,29.75,West,265,12.0,23.0,78,0.00,,,0.00,127.000000,,2013-04-12 02:52:00,
2013-04-11 20:22:00,56.0,50.0,29.75,WNW,291,3.0,17.0,81,0.00,,,0.00,7.000000,,2013-04-12 03:22:00,
2013-04-11 20:33:00,56.0,50.0,29.75,WNW,291,3.0,17.0,81,0.00,,,0.00,7.000000,,2013-04-12 03:33:00,
2013-04-11 20:43:00,56.0,50.0,29.75,WNW,291,3.0,17.0,81,0.00,,,0.00,7.000000,,2013-04-12 03:43:00,
2013-04-11 20:52:00,56.0,50.0,29.75,WNW,291,3.0,17.0,81,0.00,,,0.00,7.000000,,2013-04-12 03:52:00,
2013-04-11 21:22:00,55.0,52.0,29.78,NE,49,3.0,9.0,90,0.00,,,0.00,0.000000,,2013-04-12 04:22:00,
2013-04-11 21:33:00,55.0,52.0,29.78,NE,49,3.0,9.0,90,0.00,,,0.00,0.000000,,2013-04-12 04:33:00,
2013-04-11 21:43:00,55.0,52.0,29.78,NE,49,3.0,9.0,90,0.00,,,0.00,0.000000,,2013-04-12 04:43:00,
2013-04-11 21:52:00,55.0,52.0,29.78,NE,49,3.0,9.0,90,0.00,,,0.00,0.000000,,2013-04-12 04:52:00,
2013-04-11 22:22:00,55.0,52.0,29.79,East,94,4.0,8.0,89,0.00,,,0.00,0.000000,,2013-04-12 05:22:00,
2013-04-11 22:32:00,55.0,52.0,29.79,East,94,4.0,8.0,89,0.00,,,0.00,0.000000,,2013-04-12 05:32:00,
2013-04-11 22:42:00,55.0,52.0,29.79,East,94,4.0,8.0,89,0.00,,,0.00,0.000000,,2013-04-12 05:42:00,
2013-04-11 22:52:00,55.0,52.0,29.79,East,94,4.0,8.0,89,0.00,,,0.00,0.000000,,2013-04-12 05:52:00,
2013-04-11 23:22:00,52.0,52.0,29.80,NW,308,2.0,7.0,99,0.00,,,0.00,0.000000,,2013-04-12 06:22:00,
2013-04-11 23:32:00,52.0,52.0,29.80,NW,308,2.0,7.0,99,0.00,,,0.00,0.000000,,2013-04-12 06:32:00,
2013-04-11 23:42:00,52.0,52.0,29.80,NW,308,2.0,7.0,99,0.00,,,0.00,0.000000,,2013-04-12 06:42:00,
2013-04-11 23:52:00,52.0,52.0,29.80,NW,308,2.0,7.0,99,0.00,,,0.00,0.000000,,2013-04-12 06:52:00,